Grazzanise, Italy

9:28 AM CET on January 17, 2018 (GMT +0100)
Grazzanise Mil

Weather History for LIRM - September, 2012

Change the Weather History Date:

Saturday, September 22, 2012

  Actual Average (LIRN) Record (LIRN)
Temperature  
Mean Temperature 65 °F -  
Max Temperature 77 °F 74 °F 82 °F (1999)
Min Temperature 53 °F 55 °F 44 °F (1996)
Growing Degree Days 15 (Base 50)    
Moisture  
Dew Point 59 °F    
Average Humidity 81    
Maximum Humidity 100    
Minimum Humidity 41    
Precipitation  
Precipitation 0.00 in 0.14 in - ()
Sea Level Pressure  
Sea Level Pressure 30.09 in    
Wind  
Wind Speed 4 mph ()    
Max Wind Speed 8 mph    
Max Gust Speed -    
Visibility 8.3 miles    
Events      
Averages and records for this station are not official NWS values.
T = Trace of Precipitation, MM = Missing Value Source: Averaged Metar Reports

Daily Weather History Graph

Daily Weather History Graph

Search for Another Location

Airport or City:

Trip Planner

Search our weather history database for the weather conditions in past years. The results will help you decide how hot, cold, wet, or windy it might be!

Date:

Astronomy

Sep. 22, 2012 Rise Set
Actual Time 6:51 AM CEST 7:00 PM CEST
Civil Twilight 6:23 AM CEST 7:27 PM CEST
Nautical Twilight 5:51 AM CEST 8:00 PM CEST
Astronomical Twilight 5:18 AM CEST 8:32 PM CEST
Moon 1:56 PM CEST (9/22) 11:43 PM CEST (9/22)
Length of Visible Light 13h 03m
Length of Day
12h 09m
Waxing Crescent, 45% of the Moon is Illuminated
Sep 22
Waxing Crescent
Sep 22
First Quarter
Sep 30
Full
Oct 8
Last Quarter
Oct 15
New

Hourly Weather History & Observations

Time (CEST) Temp. Dew Point Humidity Pressure Visibility Wind Dir Wind Speed Gust Speed Precip Events Conditions
12:55 AM 59.0 °F 59.0 °F 100% 30.12 in - NE 3.5 mph - N/A   Clear
1:55 AM 57.2 °F 57.2 °F 100% 30.12 in - NNE 5.8 mph - N/A   Clear
2:00 AM 57 °F 56 °F 97% 30.13 in 9 mi NNE 5.8 mph - -  
2:55 AM 57.2 °F 55.4 °F 94% 30.12 in - NNE 5.8 mph - N/A   Clear
3:55 AM 57.2 °F 55.4 °F 94% 30.12 in - NE 5.8 mph - N/A   Clear
4:55 AM 57.2 °F 53.6 °F 88% 30.09 in - NE 2.3 mph - N/A   Clear
5:00 AM 57 °F 54 °F 88% 30.12 in 9 mi NE 2.3 mph - -  
6:55 AM 55.4 °F 51.8 °F 88% 30.09 in - NNE 2.3 mph - N/A   Clear
7:55 AM 55.4 °F 53.6 °F 94% 30.09 in - NNE 2.3 mph - N/A   Clear
8:00 AM 55 °F 53 °F 90% 30.12 in 12 mi NNE 2.3 mph - -  
8:55 AM 59.0 °F 53.6 °F 82% 30.09 in 6.2 mi NE 4.6 mph - N/A   Scattered Clouds
9:55 AM 64.4 °F 57.2 °F 77% 30.12 in 6.2 mi NE 4.6 mph - N/A   Partly Cloudy
10:55 AM 69.8 °F 59.0 °F 68% 30.12 in 6.2 mi ENE 2.3 mph - N/A   Partly Cloudy
11:00 AM 71 °F 60 °F 59% 30.13 in 12 mi ENE 2.3 mph - -   Scattered Clouds
11:55 AM 73.4 °F 62.6 °F 69% 30.09 in 6.2 mi North 3.5 mph - N/A   Partly Cloudy
12:55 PM 75.2 °F 62.6 °F 65% 30.09 in 6.2 mi NW 4.6 mph - N/A   Partly Cloudy
2:00 PM 76 °F 57 °F 41% 30.10 in 12 mi West 5.8 mph - -  
2:55 PM 75.2 °F 59.0 °F 57% 30.06 in - West 8.1 mph - N/A   Clear
3:55 PM 75.2 °F 60.8 °F 61% 30.06 in - WSW 6.9 mph - N/A   Clear
4:55 PM 75.2 °F 59.0 °F 57% 30.06 in - SW 5.8 mph - N/A   Clear
5:00 PM 74 °F 59 °F 49% 30.08 in 12 mi SW 5.8 mph - -  
5:55 PM 73.4 °F 62.6 °F 69% 30.06 in - SW 5.8 mph - N/A   Clear
6:55 PM 69.8 °F 64.4 °F 83% 30.06 in - WSW 5.8 mph - N/A   Clear
7:55 PM 68.0 °F 66.2 °F 94% 30.06 in - West 2.3 mph - N/A   Clear
8:00 PM 68 °F 66 °F 90% 30.08 in 12 mi West 2.3 mph - -  
8:55 PM 62.6 °F 60.8 °F 94% 30.06 in - NW 2.3 mph - N/A   Clear
9:55 PM 62.6 °F 60.8 °F 94% 30.06 in - ENE 3.5 mph - N/A   Clear
10:55 PM 62.6 °F 60.8 °F 94% 30.06 in 5.0 mi East 2.3 mph - N/A   Unknown
11:00 PM 63 °F 61 °F 90% 30.08 in 5 mi East 2.3 mph - -   Mist
11:55 PM 60.8 °F 59.0 °F 94% 30.06 in 5.0 mi North 2.3 mph - N/A   Unknown